Wind_Speed
73 73 72 71 70 69 70 71 72 74 74 74 74 76 78 80 81 80 78 77 77 78 78 78 78 78 77 77 77 76 75 75 74 74 74 73 72 72 71 72 72 72 72 73 73 74 75 76 77 78 80 81 83 84 84 85 84 84 83 83 82 82 82 82 83 83 84 84 84 84 84 84 84 84 84 83 82 80 78 76 75 75 75 76 77 78
71 72 72 71 70 69 70 71 72 73 74 74 74 76 79 81 81 80 79 78 78 79 79 79 78 78 77 77 76 75 74 74 74 74 73 73 72 72 71 72 72 72 73 74 75 76 77 78 79 81 82 83 84 85 85 85 85 84 83 83 82 82 82 83 83 84 84 84 84 84 84 84 85 84 84 83 81 79 77 76 75 75 75 76 77 78
69 71 72 72 71 70 70 71 72 73 73 73 75 77 79 81 81 80 80 79 79 79 79 78 77 77 76 75 75 74 74 74 74 74 73 73 72 72 72 73 73 74 75 76 77 78 80 81 81 83 84 85 86 86 86 85 85 84 83 83 82 82 83 83 84 84 84 83 83 83 84 84 84 84 83 82 80 78 76 75 75 75 75 76 77 78
70 71 73 73 72 72 72 73 73 73 73 74 75 77 80 81 82 81 80 80 79 79 78 77 76 76 75 75 74 74 74 74 74 74 74 74 73 73 74 74 75 76 77 79 80 81 82 83 83 84 85 86 86 86 86 85 84 84 83 83 83 83 83 84 84 84 84 83 83 83 84 84 84 84 83 81 79 78 76 75 75 75 76 77 78 79
73 74 75 75 75 75 76 76 75 75 75 75 76 79 81 82 82 82 81 80 79 78 77 76 76 75 75 75 75 75 75 75 75 75 75 75 75 75 76 76 78 79 80 81 82 83 84 84 85 85 86 86 86 86 85 84 84 84 83 83 83 84 84 84 84 84 83 83 83 83 83 83 83 83 82 80 79 77 76 75 75 76 76 77 78 79
77 78 78 77 77 78 79 79 79 78 77 77 78 80 81 82 82 82 81 80 79 78 77 76 76 76 76 76 76 76 76 76 76 76 76 76 77 77 78 79 81 82 83 83 84 84 84 85 85 86 86 86 85 85 84 84 84 84 84 84 84 84 84 84 84 83 83 83 83 83 83 83 82 82 81 79 78 77 77 76 76 76 77 77 78 80
80 81 80 80 79 80 81 81 81 80 78 78 79 80 81 82 82 81 80 80 79 78 77 77 77 77 77 77 77 77 77 77 78 78 78 79 79 80 81 82 83 84 84 84 85 85 85 86 86 86 85 85 84 84 84 84 84 84 85 85 84 84 84 83 83 83 83 83 83 83 83 82 81 81 80 79 78 77 77 77 77 77 77 78 79 80
80 81 80 80 79 80 81 81 80 79 78 77 78 80 81 81 82 81 81 80 79 79 79 79 79 79 79 79 79 79 79 79 79 80 81 81 82 83 84 84 85 85 85 85 85 85 85 86 85 85 85 84 84 84 84 85 85 85 85 85 84 84 83 83 83 83 83 83 84 83 82 82 81 80 79 78 78 77 77 77 77 77 78 79 80 81
79 79 79 78 78 78 79 79 78 77 76 76 77 79 80 81 81 81 81 81 80 80 80 80 81 80 80 80 80 80 81 81 81 82 83 84 85 85 86 86 86 85 85 85 85 85 85 85 85 85 84 84 84 84 85 85 85 85 85 84 84 83 83 83 83 83 83 84 83 83 82 81 80 80 79 78 78 77 77 77 78 78 78 79 81 82
77 77 76 76 76 76 76 76 76 75 74 75 76 78 80 80 81 82 82 82 82 82 82 82 82 82 82 82 82 82 82 83 83 84 85 86 86 87 87 86 85 85 84 84 84 84 84 84 84 84 85 85 85 85 85 85 85 85 84 84 83 83 83 83 83 83 83 83 83 83 82 81 81 80 79 78 78 78 77 77 77 78 79 80 81 83
76 76 75 74 74 74 74 74 74 73 73 75 77 78 80 81 82 82 83 83 83 83 83 83 83 83 83 83 83 83 84 84 85 86 87 87 87 87 86 85 84 84 84 84 84 84 84 85 85 85 85 85 86 86 86 85 85 84 84 84 83 83 83 83 83 83 83 83 83 82 82 81 81 80 80 79 78 78 77 77 78 78 79 80 82 84
77 76 75 74 74 74 74 75 74 74 75 76 78 79 81 82 83 84 85 85 85 85 84 84 84 83 83 84 84 85 85 86 87 87 88 88 87 86 85 84 84 83 84 84 84 85 85 85 85 86 86 86 86 86 85 85 84 84 84 84 83 83 83 83 83 83 83 83 82 82 82 82 82 81 81 80 79 78 78 77 78 78 79 81 83 84
78 77 76 76 76 76 76 76 76 76 77 78 80 81 82 84 85 86 87 87 87 87 86 85 85 84 84 85 85 86 87 88 88 88 88 87 86 85 84 84 84 84 84 85 85 86 86 86 86 86 86 86 85 85 85 84 84 84 84 84 84 84 83 83 83 83 83 83 83 82 83 83 82 82 81 80 79 78 78 77 78 79 80 82 83 85
81 80 79 78 78 78 78 78 78 78 80 81 82 83 84 86 87 88 88 89 89 88 87 86 86 85 85 86 86 87 88 89 89 89 88 87 85 84 84 84 85 85 86 86 86 86 86 86 86 85 85 85 85 85 84 84 84 84 84 84 84 84 84 84 84 84 83 83 83 83 83 83 83 82 81 80 79 78 78 78 78 79 81 82 84 86
83 83 82 81 81 81 80 80 80 81 82 82 83 84 85 87 88 89 90 90 90 90 88 87 87 87 87 87 88 89 89 90 90 89 87 86 85 85 85 85 86 86 86 86 86 86 86 85 85 85 85 85 84 84 84 84 84 84 84 85 85 85 85 84 84 84 84 83 83 84 84 84 83 82 81 80 79 78 78 78 79 80 82 84 86 87
86 86 85 84 84 83 83 83 83 83 83 83 84 85 87 88 90 91 91 91 91 90 89 89 88 88 89 89 90 90 90 90 89 88 87 86 86 86 86 86 87 87 87 86 86 85 85 85 85 85 85 85 85 84 84 84 84 85 85 85 85 85 85 85 85 84 84 84 84 84 85 84 83 82 81 80 79 79 79 79 80 81 83 85 87 89
88 87 87 86 86 86 86 86 85 85 84 84 85 86 88 90 91 91 92 92 91 91 90 90 89 90 90 91 91 91 90 88 87 87 86 86 87 87 87 87 87 87 86 86 85 85 85 85 85 85 85 85 85 85 85 85 85 85 86 86 86 86 86 85 85 85 85 85 85 85 85 84 83 82 81 80 79 79 79 80 81 83 85 87 88 90
90 89 89 88 88 89 89 88 87 86 85 85 86 88 89 90 91 92 92 92 92 91 91 90 91 91 92 92 92 91 89 87 86 86 86 86 87 87 87 87 87 86 86 86 85 85 85 85 85 85 85 85 85 85 85 86 86 86 86 86 86 86 86 86 85 85 85 86 86 86 85 84 83 81 80 79 79 79 80 81 83 84 86 88 90 92
92 91 91 91 91 91 90 89 88 87 86 87 88 89 90 91 92 92 92 92 92 92 91 91 92 92 92 92 91 90 88 86 85 85 85 86 87 87 87 87 87 87 87 86 86 86 86 86 86 86 86 86 86 86 86 87 87 87 87 87 86 86 86 86 86 86 86 86 86 86 85 83 82 81 80 80 79 80 81 82 84 86 88 90 91 93
93 93 93 93 92 91 89 87 87 87 87 88 88 89 90 91 92 92 92 92 92 92 92 92 92 92 91 90 89 88 87 85 85 85 86 86 87 87 87 87 87 87 88 88 87 87 86 86 86 86 86 86 86 87 87 87 87 87 87 87 86 86 86 86 86 86 87 87 86 85 84 83 82 81 80 80 80 81 82 84 86 88 90 91 93 95
95 95 94 92 90 88 86 85 86 87 88 88 89 89 90 91 92 92 92 92 92 92 91 91 90 90 89 88 87 87 86 85 85 86 86 87 87 87 87 87 88 88 89 88 88 87 87 86 86 86 86 86 87 87 88 88 87 87 87 86 86 86 86 86 87 87 87 87 86 85 84 82 81 80 80 80 81 82 84 86 88 89 91 93 95 96
95 94 92 89 86 84 83 84 85 86 87 88 89 90 90 91 92 92 92 92 91 90 90 89 88 88 88 87 87 87 86 86 86 86 87 87 87 88 88 87 88 88 89 89 88 87 87 86 86 87 87 87 88 88 88 88 87 87 87 87 87 87 87 87 88 88 87 87 85 84 83 82 81 80 80 81 82 84 85 87 89 91 93 94 96 98
91 89 86 83 82 81 82 83 85 86 87 88 89 89 90 91 91 92 92 91 90 89 89 88 88 88 88 87 87 87 87 87 87 87 87 87 87 88 88 87 88 88 89 88 88 87 87 87 87 87 88 88 88 88 88 87 87 87 87 87 87 88 88 88 88 88 87 86 85 84 82 81 81 81 81 82 83 85 87 89 91 93 94 96 97 98
85 82 80 80 80 81 82 84 85 86 87 88 89 89 90 91 91 91 91 90 90 89 89 89 89 88 88 88 87 87 88 88 88 87 87 87 87 88 88 88 88 88 89 89 88 88 88 88 88 88 88 88 88 88 88 88 88 88 88 88 88 89 89 89 88 88 86 85 84 83 82 81 81 81 82 84 85 87 89 91 93 94 96 97 98 99
80 78 78 79 80 82 83 84 85 86 87 88 89 90 90 91 91 91 90 90 90 89 89 89 89 88 88 88 88 88 88 89 88 87 87 87 87 88 88 88 88 89 89 89 89 89 89 89 89 89 89 89 89 88 88 88 88 89 89 89 89 89 89 89 88 87 86 85 84 83 82 81 82 82 84 85 87 89 91 93 94 96 97 98 98 98
78 78 79 80 82 83 84 85 86 87 88 89 89 90 90 90 90 90 90 90 90 89 89 89 89 89 89 88 88 88 89 89 88 88 87 87 88 89 89 89 89 89 90 90 90 90 90 90 90 90 90 90 89 89 89 89 89 90 90 90 90 90 89 88 87 86 85 84 83 82 82 82 83 84 86 87 89 91 92 94 95 97 98 98 98 97
78 79 80 81 83 84 85 86 87 88 89 89 89 90 90 89 89 89 89 90 90 89 89 89 89 89 89 89 89 89 89 89 89 88 88 88 88 89 90 91 91 90 91 91 91 91 91 91 91 91 91 91 90 90 90 90 90 90 91 90 90 90 89 88 87 86 85 84 83 82 82 83 84 86 88 89 91 93 94 95 96 97 98 98 97 96
79 80 81 82 84 86 87 87 88 89 89 89 89 89 89 88 88 88 89 90 89 89 89 89 89 89 89 89 89 89 89 89 89 89 89 88 89 90 91 92 92 91 92 92 92 92 92 92 92 92 92 92 91 91 91 91 91 91 91 91 90 89 88 88 87 86 85 83 83 83 84 85 86 88 90 91 93 94 95 96 97 98 98 97 96 94
80 81 82 84 85 87 87 88 89 89 89 89 89 89 88 88 88 88 89 89 89 88 88 89 89 89 89 89 89 89 89 89 89 89 89 89 90 91 93 93 93 93 93 93 93 94 94 93 93 92 92 92 92 92 92 92 92 92 91 91 90 89 88 87 86 85 84 83 83 84 85 87 88 90 91 93 94 95 96 97 98 98 97 96 94 93
82 82 84 85 86 88 88 89 89 89 89 89 89 89 89 89 88 89 89 89 88 88 88 88 88 88 88 89 89 89 89 90 90 90 90 90 92 93 94 94 94 94 94 94 94 94 95 95 94 93 93 93 93 93 93 93 92 92 91 91 90 89 88 87 86 85 84 84 84 86 87 89 90 91 93 94 95 96 97 98 98 97 96 95 93 92
83 84 85 86 88 89 89 90 90 90 90 89 89 89 89 89 89 89 88 88 88 88 88 88 88 89 89 89 89 90 91 92 92 92 92 92 93 95 95 95 95 96 95 95 94 94 95 96 95 95 94 94 94 94 93 93 92 92 91 90 89 89 88 86 85 85 84 85 86 87 89 90 92 93 94 95 96 97 98 98 98 96 95 94 93 92
84 85 87 88 89 90 90 90 91 91 90 90 90 89 89 89 89 89 88 88 88 88 88 88 89 90 90 90 90 91 92 93 94 94 94 94 95 96 97 96 96 97 97 96 95 95 95 96 96 96 95 95 94 94 94 93 92 91 91 90 89 88 87 86 85 85 86 87 88 89 91 92 93 94 96 97 98 98 98 98 97 95 94 93 92 92
86 87 88 89 90 91 91 91 91 91 91 91 90 90 90 89 89 89 89 89 89 89 89 90 91 91 92 92 93 94 95 95 96 96 96 96 97 98 98 98 97 98 98 98 97 97 96 96 97 97 96 96 95 94 94 93 92 91 90 89 89 88 87 86 86 86 87 89 90 92 93 94 95 96 97 98 98 98 98 97 95 94 93 92 92 92
88 89 90 90 91 91 92 92 92 92 92 92 91 91 91 91 91 91 91 91 91 92 92 93 93 94 95 95 96 96 97 98 98 98 98 98 98 99 99 99 99 99 99 98 98 98 98 97 97 97 97 96 96 95 93 92 92 91 90 89 87 87 86 86 87 88 90 91 92 93 94 95 96 97 98 99 98 98 97 95 94 93 92 92 92 92
90 90 91 91 92 92 92 93 93 93 93 93 93 93 93 93 94 94 94 94 95 95 96 96 97 97 98 98 98 99 99 100 101 100 100 100 100 100 100 100 100 99 99 99 99 99 99 98 98 97 97 96 95 95 93 92 91 90 89 88 87 87 87 88 89 90 92 93 94 95 96 97 98 98 99 99 98 97 95 94 93 93 92 92 92 93
90 91 91 92 92 93 93 94 94 94 94 95 95 95 96 96 96 97 97 97 98 98 99 99 100 100 100 100 101 101 102 102 103 102 102 101 101 101 100 100 101 100 100 100 100 100 99 99 99 98 97 95 95 94 93 92 91 89 88 88 88 88 89 90 91 92 93 94 95 96 97 98 99 99 99 98 97 96 94 93 93 92 92 93 93 94
91 92 92 92 93 93 94 95 95 95 96 96 97 97 98 98 99 99 100 100 100 101 101 102 102 103 103 103 103 103 104 104 104 103 103 102 101 101 101 101 101 101 101 101 101 101 100 99 98 97 96 95 94 93 92 91 90 89 88 88 89 90 91 92 93 94 94 95 96 97 98 99 99 99 98 97 96 95 94 93 93 92 93 94 94 95
92 92 93 93 94 94 95 95 96 97 97 98 99 99 100 100 101 101 102 102 103 103 104 104 105 105 105 105 105 105 105 105 105 104 103 103 102 101 102 102 102 103 102 102 101 101 100 99 97 96 96 95 94 92 91 90 89 89 90 91 91 92 93 94 94 95 96 97 98 98 99 99 99 98 97 96 95 94 93 93 93 93 94 95 96 97
94 94 94 95 95 95 96 96 97 98 99 99 100 101 101 102 102 103 104 104 105 105 106 106 107 107 107 107 106 106 106 106 105 104 104 103 103 102 103 103 103 103 103 102 101 100 98 97 96 95 95 94 93 92 91 90 90 91 92 93 93 94 94 95 95 96 97 98 98 99 99 99 98 98 96 96 95 94 94 94 94 94 95 96 97 98
96 96 97 97 97 97 97 98 98 99 100 100 101 101 102 102 103 104 105 105 106 107 108 108 108 108 108 108 107 107 107 106 106 105 104 104 104 104 104 104 103 103 102 101 100 98 97 96 96 95 94 93 92 92 92 92 92 93 93 94 95 96 96 96 97 97 98 98 99 99 99 99 98 97 96 95 95 94 94 94 95 95 96 97 98 100
98 98 99 99 99 99 100 100 100 101 101 101 102 102 103 103 104 105 106 106 107 108 108 109 109 108 108 108 108 107 107 107 106 106 105 105 105 105 104 104 103 102 101 100 98 97 96 95 95 94 94 94 93 93 93 94 94 95 95 95 96 97 97 97 98 98 98 99 99 99 99 98 97 97 96 95 95 95 95 95 96 97 97 98 99 101
99 99 100 100 101 101 101 102 102 103 103 103 103 104 104 105 105 106 107 107 108 109 109 109 109 109 108 108 108 108 108 107 107 107 106 106 106 105 104 103 102 100 99 98 97 97 96 95 95 95 95 95 95 95 95 96 96 96 96 97 97 98 98 98 98 99 99 99 99 99 98 97 97 96 96 96 96 96 96 96 97 98 99 100 101 103
100 100 101 101 102 102 103 103 104 104 104 105 105 106 106 107 107 108 108 109 109 110 110 109 109 109 109 109 109 109 108 108 108 107 107 106 105 104 103 101 100 99 98 98 97 97 97 97 96 96 96 96 96 96 96 97 97 97 97 98 98 98 98 99 99 99 99 99 99 98 98 97 97 97 97 97 97 97 97 98 98 99 100 101 103 105
102 102 103 103 104 104 105 105 106 106 106 107 107 108 108 109 109 109 110 110 110 110 110 110 110 109 109 109 109 109 108 108 107 107 106 105 103 102 101 100 100 99 99 98 98 98 98 98 98 98 97 97 97 97 97 98 98 98 98 98 98 98 99 100 100 100 100 100 99 98 98 97 97 97 97 97 98 98 98 99 100 101 102 104 105 107
105 105 105 106 106 107 107 107 108 108 108 108 108 109 109 110 110 110 110 110 110 111 110 110 110 109 109 109 108 108 107 106 106 105 104 103 102 101 101 100 100 100 99 99 99 98 98 98 98 98 98 98 97 97 98 98 98 98 98 98 99 99 100 100 101 100 100 100 99 99 98 98 98 98 98 98 99 99 100 100 101 103 104 106 107 108
107 107 107 108 108 108 108 108 108 108 108 108 109 109 109 110 110 110 110 110 109 109 109 109 108 108 107 107 107 106 105 104 104 103 103 102 102 101 101 101 101 100 100 100 100 99 99 99 98 98 98 98 98 98 98 98 98 98 99 99 100 100 101 101 101 101 100 100 100 99 99 99 99 99 99 100 100 101 101 102 103 104 106 107 109 109
106 107 107 107 107 107 107 107 107 107 107 107 107 108 108 108 108 108 108 108 108 108 107 107 107 106 106 106 105 104 104 103 103 103 102 102 102 102 101 101 101 101 100 100 100 100 99 99 99 99 98 98 98 98 98 98 98 99 100 100 101 102 102 102 102 102 101 100 100 100 100 99 99 100 100 101 101 102 103 104 105 107 108 109 110 110
105 104 104 104 104 104 104 104 104 104 105 105 105 106 106 106 106 106 106 106 106 106 106 106 105 105 105 104 104 104 103 103 103 102 102 102 102 102 102 101 101 101 101 101 100 100 100 100 100 99 99 98 98 99 99 100 100 100 101 101 102 103 103 103 103 102 102 101 101 100 100 100 100 101 101 102 103 104 105 106 107 109 110 111 111 111
103 103 103 102 103 103 103 103 103 104 104 104 105 105 105 105 105 105 105 105 105 105 104 104 104 104 103 103 103 103 103 102 102 102 102 102 102 102 102 102 102 102 102 102 102 102 102 101 101 100 100 99 99 99 100 101 102 102 102 103 103 104 104 104 104 103 102 102 102 101 101 101 101 102 102 103 104 105 107 108 110 111 112 112 112 112
102 101 101 101 101 102 102 103 103 103 103 103 104 104 104 104 104 104 104 104 104 103 103 103 102 102 102 102 102 102 102 102 102 102 102 102 102 103 103 103 103 103 103 103 103 103 103 102 102 102 101 101 100 100 101 102 103 104 104 105 105 105 105 105 104 104 103 103 103 102 102 102 103 103 104 104 106 107 109 111 112 113 113 113 113 113
101 101 101 101 101 101 101 102 102 102 102 102 102 103 103 103 103 103 102 102 102 102 102 101 101 101 101 101 101 101 101 102 102 102 103 103 103 104 104 104 104 104 104 104 104 104 103 103 103 103 103 103 103 102 103 104 105 105 106 106 107 106 106 106 105 105 104 104 104 103 103 103 104 104 105 106 108 110 111 113 114 114 114 114 114 114
Wind_Direction
262 264 265 266 266 267 267 268 269 270 271 272 272 272 272 272 273 274 275 276 277 278 279 280 281 282 283 284 284 284 283 284 284 285 285 286 287 288 289 289 289 289 289 290 290 290 291 292 294 296 298 300 302 303 305 306 306 307 307 307 307 307 307 307 308 309 310 311 313 314 315 317 318 319 320 321 322 322 322 322 322 322 322 322 322 323
262 264 264 265 266 267 268 268 269 269 271 272 272 272 272 273 273 274 275 276 277 278 279 280 281 282 282 282 282 282 282 282 283 284 285 285 286 287 287 288 288 288 289 289 290 290 291 293 294 296 298 300 302 303 304 305 306 306 306 306 306 306 306 307 307 308 310 311 312 314 315 317 318 319 320 321 321 321 321 321 321 321 321 322 322 322
260 262 263 264 265 266 267 267 268 269 271 271 272 272 272 273 274 275 276 276 277 278 279 279 280 280 281 280 280 280 281 281 282 283 284 284 285 286 287 287 287 288 288 289 289 290 291 292 294 296 298 300 301 302 303 304 305 305 305 305 305 305 305 306 307 308 309 311 312 314 315 317 318 319 320 321 321 321 321 321 321 321 321 322 322 322
258 260 261 262 263 265 266 267 268 269 271 271 272 272 272 273 274 275 276 277 277 277 278 278 279 279 279 279 279 279 280 281 281 282 283 284 284 285 286 286 287 287 288 288 289 290 291 292 294 296 298 299 301 302 303 303 304 304 304 304 304 304 305 306 307 308 309 310 312 314 315 317 318 319 320 320 320 320 320 320 320 321 321 322 322 322
256 257 259 260 262 264 265 267 268 269 270 271 272 272 273 273 274 275 276 276 276 277 277 277 277 277 277 277 278 278 279 280 281 281 282 283 284 284 285 286 286 287 288 288 289 290 291 292 294 296 298 299 300 301 302 302 302 303 303 303 303 304 304 305 306 307 309 310 312 314 315 317 318 319 319 320 319 319 319 320 320 320 321 321 321 321
255 256 258 259 261 263 265 266 268 269 271 271 272 272 272 273 274 275 275 275 276 276 276 276 276 276 276 277 277 278 278 279 280 281 281 282 283 284 285 286 286 287 288 288 289 290 291 293 294 296 298 299 300 301 301 301 301 302 302 302 303 303 304 305 306 307 309 311 312 314 315 317 318 318 319 319 319 319 319 319 320 320 321 321 321 321
256 257 258 260 262 263 265 267 268 269 270 271 271 271 272 272 273 274 274 275 275 275 275 275 275 275 275 276 276 277 278 278 279 280 281 282 283 284 285 286 287 287 288 289 289 290 292 294 295 297 298 299 300 300 300 300 300 301 301 302 302 303 304 305 306 308 309 311 313 314 315 317 317 318 318 318 318 318 318 319 320 320 321 321 321 320
256 258 259 260 262 264 266 267 268 269 270 270 270 271 271 272 272 273 273 274 274 274 275 275 275 275 275 275 276 276 277 278 279 280 281 282 283 284 285 286 287 287 288 289 290 291 293 295 296 297 298 299 299 299 299 299 299 300 300 301 302 303 304 305 306 308 310 311 313 314 315 316 317 317 318 318 318 318 318 319 319 320 320 320 320 320
256 257 259 260 262 264 266 268 269 269 270 270 270 270 270 271 272 272 273 273 274 274 274 274 275 275 275 275 275 276 277 277 278 280 281 282 283 284 285 286 287 287 288 289 291 292 294 296 297 297 298 298 298 298 298 298 299 299 300 301 302 303 304 305 307 309 310 312 313 314 315 316 317 317 317 317 317 317 318 318 319 320 320 320 319 319
255 256 257 259 261 263 265 267 268 269 269 269 269 269 270 271 271 272 273 273 273 274 274 274 274 274 275 275 275 276 277 278 279 280 281 283 284 285 285 286 287 287 289 290 292 293 295 296 296 297 297 297 297 297 298 298 299 299 300 301 302 303 304 306 308 309 311 312 313 314 315 315 316 316 316 316 316 317 317 318 319 319 319 319 319 318
254 254 255 257 259 261 264 266 267 267 268 268 268 269 269 270 271 272 272 273 273 273 273 273 274 274 275 275 276 276 277 278 279 281 282 283 284 285 285 286 287 288 289 291 292 294 295 295 296 296 296 296 297 297 297 298 298 299 300 301 302 303 305 307 308 310 311 312 313 314 314 315 315 315 315 316 316 317 317 318 319 319 319 318 318 318
252 253 253 255 257 260 262 264 266 266 266 267 267 268 269 269 270 271 272 272 273 273 273 273 273 274 275 276 276 277 278 279 280 282 283 283 284 285 285 286 287 289 290 292 293 294 294 295 295 295 295 296 296 297 297 298 298 299 300 301 302 304 305 307 309 310 311 312 312 313 313 314 314 315 315 315 316 316 317 318 318 318 318 317 317 317
251 251 252 253 255 258 261 264 265 266 266 266 266 267 268 269 270 271 271 272 273 273 273 273 274 274 275 276 277 279 280 281 282 282 283 284 284 285 285 287 288 289 291 292 293 293 294 294 294 294 295 295 296 296 297 297 298 299 300 301 303 304 306 307 309 310 311 311 312 312 313 313 314 314 314 315 316 316 317 318 318 317 317 316 316 316
250 251 251 252 254 257 260 263 265 266 266 267 267 267 268 269 270 271 271 272 273 273 274 274 275 275 276 277 278 280 281 281 282 283 283 284 284 285 286 287 288 290 291 292 292 293 293 293 293 294 294 295 295 296 297 297 298 299 301 302 303 305 306 307 308 309 310 310 311 312 312 312 313 313 314 315 316 316 317 317 317 317 316 316 316 316
251 251 251 252 254 256 259 262 264 266 267 267 268 268 268 269 269 270 271 272 272 273 274 275 276 277 278 279 279 280 281 281 282 282 283 283 284 285 286 288 289 290 291 291 292 292 292 293 293 293 294 294 295 296 296 297 298 300 301 302 304 305 306 307 308 309 309 310 310 311 311 312 312 313 314 315 316 316 317 317 316 316 315 315 315 315
251 252 252 253 255 257 259 261 263 265 267 268 268 268 268 269 269 270 270 271 272 273 275 276 277 278 279 280 280 281 281 281 281 282 283 284 285 286 287 288 289 290 290 291 291 291 291 292 292 293 293 294 295 296 297 298 299 300 301 302 304 305 306 307 308 308 309 309 310 311 311 312 312 313 314 315 316 316 316 316 315 315 314 314 315 315
252 253 254 255 256 258 260 261 263 265 266 267 268 268 268 268 269 270 270 271 272 274 275 276 277 278 279 280 280 281 281 281 281 282 283 284 285 286 287 288 289 289 290 290 290 290 291 291 292 293 293 294 295 296 297 298 299 300 301 303 304 305 306 306 307 308 308 309 310 310 311 311 312 313 314 315 315 316 316 315 314 314 314 314 314 315
252 253 255 256 258 260 261 262 263 264 266 267 267 267 268 268 269 270 271 272 273 274 275 277 278 278 279 280 280 280 280 280 281 282 283 284 285 286 287 288 288 288 289 289 289 290 290 291 292 293 293 294 295 296 297 298 299 300 302 303 304 305 306 306 307 308 308 309 309 310 311 311 312 313 314 315 315 315 315 314 313 313 313 314 314 315
253 255 256 258 260 261 262 262 262 263 264 265 266 267 267 268 269 270 271 272 273 275 276 277 277 278 278 279 279 279 280 280 280 281 282 283 284 285 286 287 287 287 288 288 288 289 290 291 292 293 293 294 295 296 297 298 300 301 302 303 304 305 305 306 307 307 308 308 309 310 310 311 312 313 314 314 314 314 313 313 312 312 313 313 314 315
255 256 258 259 261 262 262 262 262 262 263 264 265 266 267 268 269 270 271 272 274 275 276 276 277 277 277 278 278 278 279 279 280 281 282 283 284 285 286 286 286 287 287 288 288 290 290 291 292 293 294 295 296 297 298 299 300 301 302 303 304 304 305 306 306 307 307 308 309 309 310 311 312 313 314 314 313 313 312 312 312 312 312 313 314 316
257 258 259 260 261 261 261 261 261 262 263 264 265 266 267 268 269 270 271 272 273 274 275 275 276 276 276 277 277 278 278 279 280 280 281 283 283 284 285 285 286 286 287 288 289 290 291 292 292 293 294 295 296 297 298 299 300 301 302 303 303 304 305 305 306 306 307 308 309 309 310 311 312 313 313 313 312 312 311 311 311 312 312 314 315 316
257 258 259 259 259 259 259 260 261 262 263 264 265 266 267 268 269 270 271 272 272 273 273 274 274 274 275 275 276 277 278 278 279 280 281 282 283 284 285 285 286 286 287 288 290 291 291 292 293 293 294 295 296 297 298 299 300 301 302 303 303 304 304 305 305 306 307 307 308 309 310 311 312 312 312 311 311 310 310 310 311 312 313 314 315 316
257 257 257 257 257 258 259 260 261 262 263 264 265 266 267 268 268 269 270 270 271 271 271 272 272 273 274 275 276 277 278 278 279 280 281 282 283 284 284 285 286 286 287 289 290 291 291 292 293 294 295 295 296 298 298 299 300 301 301 302 303 303 304 304 305 306 306 307 308 309 310 311 311 311 311 310 310 310 310 310 311 312 313 314 315 316
255 256 255 256 256 257 259 260 261 262 263 264 265 266 267 267 268 268 269 269 269 269 270 271 272 272 274 275 276 277 277 278 279 280 281 282 282 283 284 285 285 286 287 289 290 291 291 292 293 294 295 296 296 297 298 299 300 300 301 302 302 303 303 304 305 305 306 307 308 309 310 310 310 310 309 309 309 309 309 310 311 312 313 314 315 317
254 254 254 255 256 257 259 260 261 262 263 264 265 266 266 267 267 267 267 267 268 268 269 270 271 272 273 274 275 276 277 278 279 280 280 281 282 283 283 284 285 286 287 288 289 290 291 292 293 294 294 295 296 297 298 299 299 300 301 301 302 302 303 304 304 305 306 307 308 309 309 309 309 308 308 308 308 309 309 310 311 312 313 314 316 316
253 253 254 255 256 257 259 260 261 262 263 264 264 265 265 266 266 266 266 266 267 268 269 270 271 272 273 274 275 276 277 277 278 279 280 281 281 282 283 284 285 286 287 288 289 290 291 292 292 293 294 295 296 297 297 298 299 299 300 301 301 302 303 303 304 305 306 307 308 308 308 308 308 307 307 307 308 308 309 310 311 312 314 314 315 316
253 253 254 255 256 258 259 260 261 262 263 263 264 264 264 265 265 265 265 266 266 267 268 269 271 272 273 274 275 275 276 277 278 278 279 280 281 282 283 284 285 286 287 288 289 290 290 291 292 293 294 295 295 296 297 298 298 299 300 300 301 302 302 303 304 305 306 307 307 307 307 307 306 306 307 307 308 308 309 310 311 313 314 314 315 316
253 254 254 255 257 258 259 260 261 261 262 262 263 263 263 264 264 265 265 266 266 267 268 270 271 272 273 273 274 275 275 276 277 278 279 280 281 282 283 284 285 286 287 288 289 289 290 291 292 293 294 294 295 296 297 297 298 299 299 300 301 301 302 303 304 305 306 306 306 306 306 305 305 306 306 307 308 309 310 311 312 313 314 314 315 316
253 253 254 255 256 257 258 259 260 261 261 262 262 262 263 263 264 264 265 266 267 268 269 269 270 271 272 273 273 274 275 276 277 278 279 280 281 282 283 284 285 286 287 288 288 289 290 291 291 292 293 294 295 296 296 297 298 298 299 300 300 301 302 303 304 305 305 305 305 305 305 305 305 305 306 307 308 309 310 311 312 313 314 315 316 316
252 253 254 255 256 257 258 259 259 260 261 261 261 262 262 263 264 264 265 266 267 268 268 269 270 271 271 272 273 274 275 276 277 278 279 280 281 282 283 284 285 286 286 287 288 289 290 290 291 292 293 294 295 295 296 297 297 298 299 299 300 301 302 303 304 304 304 304 304 304 304 304 305 305 306 307 308 309 310 311 312 313 314 315 316 316
252 253 254 254 255 256 257 258 259 259 260 261 261 262 262 263 264 265 265 266 267 267 268 269 269 270 271 272 273 274 275 276 277 278 279 280 281 282 283 284 285 285 286 287 288 289 290 290 291 292 293 294 294 295 296 296 297 298 298 299 300 301 302 303 303 303 303 303 303 303 303 304 304 305 306 307 308 309 310 311 312 313 314 315 315 316
252 253 253 254 255 255 256 257 258 259 260 261 261 262 263 263 264 264 265 266 266 267 267 268 269 270 271 272 273 274 275 276 277 278 279 280 281 281 282 283 284 285 286 286 287 288 289 290 291 292 293 293 294 295 295 296 297 297 298 299 300 301 302 302 302 302 302 302 302 302 303 304 304 305 306 307 308 309 310 311 312 313 314 315 315 315
252 252 253 254 254 255 256 257 258 259 260 260 261 262 263 263 264 264 265 265 266 266 267 268 269 270 271 272 273 274 275 276 277 278 279 280 280 281 282 283 284 284 285 286 287 288 289 290 291 292 292 293 294 294 295 296 296 297 298 299 300 301 301 301 301 301 301 301 302 302 303 304 305 306 307 308 308 309 310 311 312 313 314 314 314 314
251 252 253 253 254 255 256 257 258 258 259 260 261 262 263 263 264 264 265 265 266 267 267 268 269 270 271 272 273 274 275 276 277 278 279 279 280 281 282 283 283 284 285 286 287 288 289 290 291 291 292 293 293 294 295 295 296 297 298 299 300 300 300 300 300 300 300 301 301 302 303 304 305 306 307 308 309 310 310 311 312 313 313 313 313 313
251 252 252 253 254 255 256 257 257 258 259 260 261 262 262 263 264 264 265 265 266 267 268 269 269 270 271 272 273 274 275 276 277 278 279 279 280 281 282 282 283 284 285 286 287 288 289 289 290 291 292 292 293 294 294 295 296 297 298 299 299 299 299 299 299 299 300 301 301 302 303 304 305 306 307 308 309 310 311 311 312 312 313 313 313 313
250 251 252 253 254 255 255 256 257 258 259 260 261 261 262 263 264 264 265 266 267 267 268 269 270 271 271 272 273 274 275 276 277 278 279 279 280 281 282 282 283 284 285 286 287 288 288 289 290 290 291 292 293 294 295 295 296 297 298 298 298 298 298 298 298 299 300 300 301 302 303 304 305 306 307 308 309 310 311 311 311 312 312 312 312 312
250 251 252 253 253 254 255 256 257 258 259 260 260 261 262 263 264 265 265 266 267 268 268 269 270 271 271 272 273 274 275 276 277 278 278 279 280 281 282 282 283 284 285 286 287 287 288 288 289 290 290 291 293 294 295 296 297 297 297 297 297 297 297 298 298 299 300 300 301 302 303 304 305 306 307 308 309 310 310 311 311 311 311 311 311 311
251 251 252 253 253 254 255 256 257 258 258 259 260 261 262 263 264 265 265 266 267 268 268 269 270 271 272 272 273 274 275 276 277 277 278 279 280 281 282 283 283 284 285 285 286 286 287 288 288 289 290 292 293 294 295 296 296 296 296 296 296 296 297 297 298 299 300 300 301 302 303 305 306 307 307 308 309 309 310 310 310 310 310 310 311 311
251 252 252 253 254 254 255 256 257 258 258 259 260 261 262 263 264 264 265 266 267 267 268 269 270 271 271 272 273 274 275 275 276 277 278 279 280 281 282 282 283 284 284 285 285 286 287 287 288 290 291 292 294 294 295 295 295 295 295 295 295 296 296 297 298 299 300 301 302 303 304 305 306 307 307 308 308 309 309 309 309 310 310 310 310 311
252 252 253 254 254 255 256 256 257 258 259 259 260 261 262 263 263 264 265 266 266 267 268 269 269 270 271 272 273 274 274 275 276 277 277 278 279 280 281 282 283 283 284 284 285 286 287 288 289 291 292 293 294 294 294 294 294 294 294 295 295 296 296 297 298 299 300 301 302 303 304 305 306 307 307 308 308 308 308 309 309 309 309 309 310 311
252 253 254 254 255 256 256 257 258 258 259 260 261 261 262 263 264 264 265 266 266 267 268 268 269 270 271 272 272 273 274 275 275 276 277 278 279 280 281 282 282 283 283 284 285 286 287 289 290 292 293 293 294 294 294 294 294 294 294 294 295 296 297 297 298 299 300 301 303 304 304 305 306 306 307 307 307 308 308 308 308 308 309 309 310 311
253 253 254 255 256 257 257 258 258 259 260 261 261 262 263 263 264 264 265 266 266 267 268 268 269 270 271 271 272 273 274 274 275 276 277 278 279 280 281 282 282 283 284 285 286 287 289 290 291 292 292 293 293 293 293 293 293 294 294 295 295 296 297 298 299 300 301 302 303 304 305 305 306 306 306 307 307 307 307 307 308 308 308 309 310 311
253 254 255 256 257 257 258 259 259 260 261 262 262 263 263 264 264 265 265 266 266 267 268 268 269 270 271 271 272 273 274 275 275 277 278 279 280 281 281 282 283 284 285 286 287 288 289 290 291 291 292 292 292 293 293 293 293 294 294 295 295 296 297 298 299 300 301 302 303 304 304 305 305 306 306 306 306 306 307 307 307 308 308 309 310 311
253 254 255 256 257 258 259 260 261 261 262 263 263 264 264 264 265 265 266 266 267 267 268 269 269 270 271 272 272 273 274 275 276 277 278 280 281 281 282 283 284 285 286 286 287 288 289 290 290 291 291 292 292 292 292 293 293 294 294 295 296 296 297 298 300 301 302 303 303 304 304 305 305 305 305 305 306 306 306 306 307 307 308 309 310 311
254 255 255 256 257 258 259 260 261 262 263 263 264 264 265 265 265 266 266 267 268 268 269 269 270 271 272 272 273 274 275 276 278 279 280 281 282 283 283 284 285 285 286 286 287 287 288 289 289 290 291 291 292 292 292 293 293 294 294 295 296 297 298 299 300 301 302 303 303 304 304 304 304 305 305 305 305 305 306 306 307 307 308 309 310 311
254 255 256 257 257 258 259 260 261 262 263 263 264 265 265 265 266 267 267 268 268 269 270 270 271 272 273 274 275 276 277 278 279 280 281 282 282 283 283 284 284 284 285 285 286 287 288 288 289 290 291 291 292 292 292 293 293 294 295 296 297 298 299 300 301 302 302 303 303 303 304 304 304 304 304 304 305 305 305 306 307 307 308 309 310 311
255 256 256 257 258 259 259 260 261 262 263 264 264 265 265 266 267 267 268 269 269 270 271 272 273 274 275 276 276 277 278 279 280 281 281 282 282 282 283 283 283 284 284 285 286 286 287 288 289 290 290 291 291 292 292 293 294 294 295 296 297 298 299 300 301 302 302 302 303 303 303 303 303 303 304 304 304 305 305 306 307 307 308 309 310 311
257 258 258 258 259 260 260 261 262 263 263 264 265 265 266 267 268 269 269 270 271 272 273 274 275 275 276 277 278 278 279 279 280 280 280 281 281 281 282 282 283 283 284 285 286 287 287 288 289 290 290 291 291 292 293 294 294 295 296 297 298 299 300 300 301 301 302 302 302 302 302 302 303 303 303 304 304 304 305 306 306 307 308 309 310 311
260 260 260 261 261 262 262 263 263 264 265 265 266 267 267 268 269 270 271 271 272 273 274 275 275 276 276 277 277 278 278 279 279 279 280 280 280 281 281 282 282 283 284 285 286 287 288 289 289 290 290 291 292 292 293 294 295 296 297 298 298 299 300 300 301 301 301 301 301 301 302 302 302 302 303 303 304 304 305 306 306 307 308 309 310 311
261 262 262 262 263 263 264 264 264 265 266 266 267 268 268 269 270 271 271 272 273 273 274 274 275 275 276 276 277 277 278 278 278 279 279 280 280 281 281 282 283 284 284 286 287 288 288 289 290 290 291 292 292 293 294 295 296 297 297 298 298 299 299 300 300 300 301 301 301 301 301 301 302 302 303 303 303 304 305 306 306 307 308 309 310 310
262 262 262 263 263 264 264 264 265 265 266 267 267 268 269 270 270 271 271 272 273 273 274 274 275 275 276 276 277 277 277 278 278 279 279 280 280 281 282 282 283 284 285 286 287 288 289 290 290 291 292 292 293 294 295 295 296 297 297 298 298 299 299 299 300 300 300 300 300 300 301 301 301 302 302 303 303 304 305 306 306 307 308 309 310 310
Height
10663 10662 10663 10663 10664 10664 10664 10664 10663 10662 10661 10661 10662 10661 10659 10656 10654 10656 10657 10659 10659 10659 10659 10659 10659 10659 10659 10659 10658 10657 10657 10656 10655 10655 10654 10654 10653 10652 10651 10650 10649 10647 10646 10645 10643 10642 10641 10639 10638 10637 10636 10635 10634 10632 10631 10630 10629 10628 10627 10625 10623 10621 10619 10617 10615 10613 10612 10609 10607 10604 10601 10599 10597 10595 10593 10591 10587 10584 10581 10578 10575 10572 10570 10567 10564 10562
10659 10658 10658 10659 10659 10659 10659 10659 10658 10657 10657 10657 10657 10656 10652 10650 10649 10651 10652 10654 10655 10655 10656 10656 10655 10655 10655 10654 10654 10653 10652 10652 10651 10651 10650 10649 10649 10647 10647 10646 10644 10643 10642 10641 10639 10638 10637 10636 10634 10633 10632 10631 10629 10628 10627 10626 10625 10624 10623 10622 10620 10618 10616 10613 10611 10609 10607 10606 10604 10601 10597 10595 10592 10590 10588 10586 10584 10581 10578 10575 10572 10570 10567 10564 10561 10558
10654 10653 10652 10654 10655 10655 10654 10654 10653 10653 10653 10653 10652 10650 10647 10645 10644 10646 10648 10649 10650 10651 10651 10651 10651 10651 10650 10649 10649 10649 10648 10647 10647 10646 10646 10645 10644 10643 10642 10641 10640 10639 10638 10637 10635 10634 10632 10632 10631 10630 10628 10627 10626 10624 10623 10622 10621 10620 10619 10617 10616 10614 10612 10609 10607 10605 10604 10602 10600 10597 10594 10591 10588 10586 10583 10581 10579 10577 10575 10572 10570 10567 10564 10561 10558 10555
10649 10647 10647 10649 10650 10650 10649 10649 10649 10649 10649 10649 10647 10645 10642 10640 10639 10641 10643 10644 10645 10646 10646 10646 10646 10646 10646 10645 10644 10644 10644 10642 10642 10641 10641 10641 10640 10639 10638 10637 10636 10635 10634 10632 10631 10630 10629 10628 10627 10626 10624 10623 10622 10621 10619 10618 10617 10616 10614 10614 10612 10610 10608 10606 10603 10601 10599 10597 10596 10594 10591 10588 10585 10582 10579 10577 10575 10573 10571 10569 10567 10564 10561 10558 10555 10552
10644 10642 10642 10644 10644 10644 10644 10644 10644 10644 10644 10644 10643 10641 10637 10636 10635 10636 10637 10639 10640 10641 10641 10641 10641 10641 10641 10640 10640 10639 10639 10638 10637 10637 10636 10636 10635 10634 10634 10632 10632 10631 10629 10628 10627 10626 10625 10624 10623 10622 10621 10619 10617 10616 10615 10614 10612 10611 10610 10609 10607 10606 10604 10602 10599 10597 10595 10593 10592 10590 10587 10584 10581 10579 10576 10573 10571 10569 10567 10565 10563 10561 10557 10555 10552 10549
10637 10637 10638 10639 10639 10639 10639 10639 10639 10640 10640 10640 10639 10636 10633 10631 10631 10632 10632 10634 10635 10636 10636 10636 10636 10636 10636 10636 10635 10634 10634 10633 10632 10632 10631 10631 10630 10629 10629 10628 10627 10626 10625 10624 10622 10622 10621 10619 10619 10617 10616 10615 10614 10612 10611 10609 10608 10607 10606 10604 10603 10602 10600 10597 10595 10592 10591 10589 10587 10586 10584 10581 10578 10576 10572 10570 10567 10564 10562 10561 10559 10557 10554 10551 10549 10546
10632 10632 10634 10635 10635 10635 10635 10634 10634 10635 10636 10636 10634 10631 10628 10627 10626 10627 10627 10629 10630 10631 10631 10631 10631 10631 10631 10631 10630 10630 10629 10628 10627 10627 10626 10626 10626 10625 10624 10624 10623 10622 10621 10620 10619 10617 10616 10615 10614 10612 10611 10610 10609 10607 10606 10605 10604 10602 10601 10600 10599 10597 10596 10593 10591 10588 10586 10584 10582 10581 10579 10577 10575 10572 10570 10567 10564 10561 10559 10556 10554 10552 10550 10547 10545 10542
10627 10627 10630 10631 10631 10631 10630 10629 10629 10630 10631 10631 10629 10626 10622 10622 10622 10622 10622 10624 10624 10625 10626 10626 10626 10626 10626 10626 10625 10625 10624 10624 10623 10622 10621 10621 10621 10621 10621 10619 10619 10618 10617 10615 10614 10612 10611 10610 10609 10607 10606 10605 10604 10602 10601 10601 10599 10598 10597 10596 10594 10592 10591 10589 10586 10584 10581 10579 10577 10576 10574 10572 10571 10569 10567 10564 10561 10558 10556 10553 10551 10548 10546 10543 10541 10538
10622 10623 10625 10626 10627 10626 10625 10624 10624 10625 10626 10626 10623 10620 10618 10617 10616 10617 10617 10618 10619 10619 10620 10620 10620 10621 10621 10621 10621 10620 10619 10619 10618 10617 10617 10617 10616 10616 10616 10615 10614 10613 10612 10611 10609 10608 10607 10606 10604 10602 10601 10601 10599 10598 10597 10596 10595 10594 10592 10591 10589 10587 10586 10584 10581 10579 10576 10574 10572 10571 10569 10568 10567 10565 10563 10561 10558 10555 10552 10549 10547 10544 10542 10539 10537 10534
10618 10619 10620 10622 10622 10622 10621 10619 10619 10620 10621 10620 10617 10614 10614 10612 10612 10611 10612 10612 10613 10614 10615 10615 10615 10615 10615 10615 10616 10616 10615 10614 10613 10613 10614 10612 10611 10611 10611 10610 10609 10608 10607 10606 10604 10604 10602 10601 10599 10598 10597 10596 10594 10594 10592 10591 10590 10589 10587 10586 10584 10582 10581 10579 10576 10574 10572 10569 10567 10566 10564 10563 10562 10561 10559 10557 10555 10552 10549 10546 10544 10541 10539 10536 10533 10531
10612 10614 10615 10616 10617 10617 10616 10614 10614 10616 10616 10614 10611 10609 10609 10609 10607 10607 10606 10606 10607 10608 10609 10609 10610 10609 10609 10609 10609 10610 10611 10610 10609 10608 10609 10608 10607 10606 10606 10605 10604 10603 10602 10601 10600 10599 10597 10596 10594 10593 10592 10591 10590 10589 10587 10586 10585 10584 10582 10581 10579 10577 10576 10574 10572 10569 10567 10566 10563 10562 10560 10559 10557 10556 10555 10553 10551 10549 10546 10543 10541 10538 10536 10533 10531 10527
10607 10608 10609 10611 10611 10611 10611 10610 10611 10611 10611 10609 10606 10605 10604 10604 10603 10602 10602 10601 10602 10602 10604 10604 10604 10604 10604 10604 10604 10604 10605 10605 10604 10603 10603 10602 10602 10602 10601 10600 10599 10598 10597 10596 10595 10594 10592 10591 10589 10588 10587 10586 10585 10584 10582 10581 10579 10578 10577 10576 10574 10573 10571 10569 10567 10566 10563 10561 10559 10557 10556 10554 10553 10552 10551 10549 10547 10545 10542 10539 10537 10534 10532 10530 10527 10525
10602 10602 10604 10604 10605 10606 10605 10606 10606 10606 10604 10602 10601 10600 10599 10598 10598 10598 10597 10597 10597 10597 10599 10599 10599 10599 10599 10599 10599 10599 10599 10599 10598 10597 10598 10598 10597 10597 10596 10595 10594 10593 10592 10591 10590 10589 10587 10586 10585 10583 10582 10581 10580 10579 10577 10576 10574 10572 10571 10570 10569 10567 10566 10565 10563 10561 10559 10557 10556 10554 10552 10551 10549 10547 10546 10544 10542 10540 10538 10536 10533 10531 10529 10526 10524 10521
10596 10597 10597 10599 10599 10600 10601 10601 10601 10599 10597 10596 10596 10595 10594 10594 10594 10593 10593 10592 10592 10592 10594 10595 10594 10594 10594 10595 10595 10594 10594 10592 10592 10592 10592 10592 10592 10592 10591 10589 10588 10587 10587 10587 10585 10584 10582 10581 10580 10579 10577 10576 10575 10574 10572 10571 10569 10567 10566 10565 10564 10562 10561 10560 10559 10557 10556 10554 10552 10551 10549 10547 10545 10543 10541 10539 10537 10536 10534 10531 10529 10527 10524 10522 10520 10517
10590 10591 10592 10593 10594 10595 10596 10596 10595 10593 10591 10591 10590 10591 10590 10589 10589 10588 10588 10587 10587 10587 10590 10590 10590 10589 10590 10590 10590 10590 10589 10588 10587 10587 10587 10587 10586 10586 10586 10584 10582 10582 10582 10582 10580 10578 10577 10576 10575 10574 10572 10571 10570 10569 10567 10566 10564 10562 10561 10559 10558 10557 10556 10555 10554 10552 10551 10549 10548 10546 10544 10542 10541 10539 10537 10534 10532 10531 10529 10527 10525 10522 10521 10518 10516 10513
10584 10586 10587 10587 10589 10591 10591 10591 10590 10588 10586 10586 10586 10586 10585 10584 10583 10582 10582 10582 10582 10583 10585 10586 10585 10585 10584 10584 10585 10586 10585 10584 10582 10582 10581 10581 10579 10579 10580 10579 10577 10576 10576 10576 10574 10573 10572 10571 10570 10569 10567 10566 10564 10563 10562 10561 10559 10558 10556 10555 10553 10552 10551 10550 10549 10547 10546 10545 10543 10542 10540 10538 10536 10534 10532 10530 10528 10526 10524 10522 10520 10518 10516 10514 10511 10509
10579 10581 10581 10583 10584 10586 10586 10586 10584 10583 10581 10581 10581 10580 10579 10578 10577 10577 10578 10577 10578 10579 10581 10581 10581 10581 10579 10578 10578 10579 10581 10580 10578 10576 10576 10574 10573 10573 10574 10574 10572 10571 10570 10569 10569 10568 10567 10566 10565 10564 10562 10561 10559 10558 10557 10556 10554 10553 10551 10550 10549 10547 10546 10545 10544 10542 10541 10540 10539 10537 10536 10534 10532 10530 10527 10526 10523 10521 10519 10517 10515 10513 10511 10509 10506 10504
10574 10576 10577 10579 10579 10580 10581 10581 10579 10578 10577 10577 10576 10574 10573 10572 10572 10572 10572 10573 10574 10575 10576 10576 10576 10575 10574 10572 10571 10572 10574 10576 10574 10571 10570 10569 10568 10567 10568 10568 10567 10565 10564 10563 10563 10562 10562 10561 10560 10559 10557 10556 10554 10553 10551 10550 10549 10547 10546 10545 10544 10542 10541 10539 10538 10537 10536 10534 10533 10532 10531 10529 10527 10525 10523 10521 10519 10517 10515 10512 10511 10509 10506 10504 10502 10499
10569 10571 10573 10574 10574 10575 10575 10575 10574 10573 10572 10571 10570 10569 10568 10567 10567 10567 10568 10569 10571 10571 10571 10571 10570 10569 10568 10567 10566 10566 10569 10570 10569 10566 10565 10564 10562 10562 10562 10562 10561 10559 10558 10557 10557 10557 10557 10556 10554 10554 10552 10551 10549 10548 10546 10545 10544 10542 10541 10540 10539 10537 10536 10534 10533 10532 10531 10529 10528 10527 10526 10524 10522 10520 10518 10516 10514 10512 10510 10508 10506 10504 10501 10499 10497 10495
10564 10566 10568 10569 10569 10570 10570 10569 10568 10567 10567 10566 10565 10564 10564 10562 10562 10563 10564 10566 10567 10566 10566 10566 10564 10562 10561 10561 10561 10561 10563 10564 10562 10561 10559 10559 10557 10557 10557 10557 10555 10553 10552 10551 10552 10552 10552 10551 10549 10548 10547 10546 10544 10543 10541 10540 10539 10537 10536 10535 10534 10532 10531 10530 10529 10527 10526 10524 10523 10522 10521 10519 10517 10515 10513 10511 10509 10507 10506 10504 10501 10499 10497 10494 10492 10490
10560 10561 10562 10564 10565 10565 10564 10562 10562 10562 10561 10561 10561 10560 10559 10558 10559 10559 10560 10562 10562 10561 10560 10559 10557 10556 10556 10556 10556 10556 10557 10557 10557 10555 10554 10553 10552 10551 10551 10551 10549 10547 10546 10546 10546 10547 10546 10545 10544 10543 10542 10541 10539 10537 10536 10535 10534 10532 10531 10530 10529 10527 10526 10525 10524 10522 10521 10520 10518 10517 10516 10514 10512 10511 10509 10507 10505 10503 10501 10499 10497 10494 10492 10490 10488 10486
10556 10556 10557 10559 10559 10559 10557 10557 10556 10556 10556 10556 10556 10555 10554 10554 10555 10555 10556 10557 10557 10556 10554 10552 10551 10551 10551 10551 10551 10550 10551 10551 10551 10549 10549 10548 10546 10545 10546 10545 10544 10541 10540 10540 10541 10541 10541 10539 10539 10538 10537 10536 10534 10532 10531 10530 10529 10527 10526 10525 10524 10522 10521 10520 10519 10517 10516 10515 10514 10512 10511 10509 10507 10506 10504 10502 10501 10498 10496 10494 10492 10490 10487 10486 10484 10481
10551 10551 10552 10553 10553 10552 10552 10551 10551 10551 10551 10551 10551 10551 10550 10551 10551 10551 10551 10552 10552 10550 10548 10546 10546 10546 10546 10546 10545 10545 10545 10545 10545 10544 10544 10542 10541 10539 10539 10539 10538 10536 10534 10535 10536 10536 10534 10534 10533 10532 10532 10531 10529 10527 10526 10525 10524 10522 10521 10520 10519 10517 10517 10516 10514 10513 10512 10511 10509 10507 10506 10504 10503 10501 10499 10497 10496 10494 10492 10489 10487 10485 10483 10481 10479 10477
10545 10546 10546 10547 10547 10546 10546 10546 10546 10546 10546 10546 10546 10546 10546 10546 10547 10546 10546 10546 10546 10544 10543 10542 10542 10541 10540 10539 10540 10539 10539 10539 10539 10539 10539 10537 10535 10534 10534 10534 10532 10531 10529 10530 10531 10531 10529 10528 10527 10527 10526 10526 10524 10523 10522 10520 10519 10517 10516 10515 10514 10513 10512 10511 10509 10508 10507 10506 10504 10503 10502 10500 10498 10497 10495 10493 10491 10489 10487 10485 10482 10481 10479 10476 10474 10472
10539 10539 10540 10541 10541 10541 10541 10541 10541 10541 10541 10541 10541 10541 10541 10542 10542 10541 10541 10540 10539 10539 10537 10537 10536 10535 10534 10534 10534 10534 10533 10534 10534 10534 10533 10531 10529 10528 10527 10528 10527 10526 10525 10525 10526 10526 10524 10523 10522 10521 10521 10521 10519 10518 10517 10516 10514 10512 10511 10510 10509 10508 10507 10506 10505 10504 10502 10501 10500 10499 10497 10496 10494 10492 10491 10489 10487 10484 10482 10480 10478 10476 10474 10472 10469 10467
10533 10534 10535 10535 10535 10535 10535 10535 10536 10536 10536 10536 10536 10536 10536 10536 10536 10536 10535 10534 10532 10532 10531 10531 10530 10529 10528 10529 10529 10529 10527 10528 10529 10528 10527 10526 10524 10523 10522 10522 10522 10522 10521 10520 10520 10520 10519 10517 10516 10516 10516 10516 10514 10513 10512 10511 10509 10508 10507 10506 10504 10503 10502 10501 10500 10499 10498 10497 10496 10494 10492 10491 10489 10487 10486 10484 10482 10480 10478 10476 10474 10471 10469 10467 10464 10462
10529 10530 10531 10531 10530 10529 10529 10530 10530 10531 10531 10531 10531 10531 10531 10531 10530 10529 10527 10526 10526 10526 10526 10526 10524 10524 10524 10524 10524 10523 10522 10522 10522 10522 10522 10521 10520 10517 10516 10516 10517 10517 10516 10515 10514 10514 10514 10512 10511 10511 10511 10510 10509 10508 10507 10506 10504 10503 10502 10501 10499 10499 10497 10497 10496 10494 10493 10492 10491 10489 10488 10486 10484 10483 10481 10479 10477 10476 10473 10471 10469 10467 10464 10462 10460 10457
10524 10525 10526 10526 10526 10524 10524 10524 10525 10525 10526 10526 10525 10525 10524 10524 10524 10522 10520 10519 10520 10521 10521 10520 10519 10519 10519 10519 10518 10517 10517 10517 10517 10516 10516 10516 10515 10512 10511 10511 10512 10512 10511 10510 10509 10509 10509 10507 10507 10506 10505 10504 10504 10503 10502 10501 10499 10498 10497 10496 10495 10494 10493 10492 10491 10490 10489 10487 10486 10485 10483 10482 10480 10478 10476 10474 10472 10471 10469 10466 10464 10462 10460 10457 10456 10453
10517 10519 10520 10521 10520 10520 10519 10519 10520 10520 10519 10519 10519 10519 10518 10518 10517 10516 10514 10514 10516 10517 10516 10514 10514 10514 10514 10513 10512 10512 10512 10511 10511 10511 10512 10511 10509 10506 10506 10507 10507 10506 10506 10506 10504 10502 10502 10502 10502 10501 10500 10499 10498 10497 10497 10496 10494 10493 10492 10491 10490 10489 10488 10487 10486 10485 10484 10482 10481 10480 10479 10477 10475 10473 10472 10470 10467 10466 10464 10461 10459 10457 10455 10452 10450 10448
10511 10512 10513 10514 10514 10513 10514 10514 10514 10514 10514 10513 10513 10513 10513 10512 10512 10511 10510 10511 10511 10511 10509 10509 10508 10508 10508 10507 10507 10507 10506 10505 10505 10506 10507 10506 10504 10501 10501 10502 10501 10501 10501 10501 10499 10497 10495 10495 10496 10496 10496 10494 10492 10492 10491 10490 10489 10488 10487 10486 10485 10484 10483 10482 10481 10480 10479 10478 10477 10475 10474 10472 10470 10469 10467 10465 10463 10461 10459 10456 10454 10452 10449 10447 10445 10442
10503 10505 10506 10506 10506 10507 10507 10507 10508 10508 10507 10507 10508 10508 10507 10507 10506 10506 10506 10506 10506 10505 10504 10503 10502 10502 10502 10502 10502 10501 10499 10498 10499 10501 10502 10501 10499 10496 10496 10497 10496 10495 10495 10496 10496 10493 10490 10488 10488 10489 10491 10489 10488 10486 10486 10485 10484 10483 10482 10481 10480 10479 10478 10477 10476 10475 10474 10473 10472 10470 10469 10467 10465 10463 10462 10460 10458 10456 10454 10451 10449 10447 10444 10442 10439 10437
10497 10498 10499 10499 10499 10500 10501 10501 10501 10502 10501 10502 10502 10502 10501 10501 10501 10501 10501 10500 10500 10499 10499 10497 10497 10496 10496 10496 10496 10496 10494 10493 10494 10496 10497 10496 10494 10491 10491 10492 10491 10489 10489 10489 10490 10489 10487 10484 10482 10482 10484 10484 10482 10481 10481 10479 10479 10478 10477 10476 10475 10474 10473 10472 10472 10470 10469 10467 10466 10465 10464 10462 10460 10458 10456 10454 10452 10451 10448 10446 10444 10441 10439 10437 10434 10431
10491 10492 10492 10493 10494 10494 10494 10495 10495 10496 10496 10496 10496 10496 10495 10495 10495 10495 10494 10494 10494 10493 10492 10492 10491 10491 10490 10491 10490 10490 10489 10488 10489 10489 10491 10491 10489 10487 10486 10486 10486 10485 10484 10484 10484 10483 10482 10481 10479 10477 10477 10477 10477 10476 10476 10474 10474 10472 10472 10471 10469 10468 10467 10467 10466 10466 10464 10462 10461 10460 10458 10457 10455 10453 10451 10449 10447 10446 10443 10441 10439 10436 10434 10431 10429 10426
10484 10486 10486 10487 10488 10488 10489 10489 10489 10490 10491 10490 10490 10489 10489 10489 10489 10489 10488 10488 10487 10487 10487 10486 10485 10484 10484 10484 10484 10484 10483 10483 10484 10484 10486 10486 10484 10482 10481 10481 10481 10480 10479 10478 10477 10477 10476 10476 10474 10474 10472 10471 10471 10471 10471 10470 10469 10467 10467 10466 10465 10464 10462 10462 10461 10461 10459 10457 10456 10455 10453 10451 10450 10448 10446 10444 10442 10440 10438 10436 10433 10431 10428 10426 10424 10422
10479 10479 10481 10481 10482 10482 10482 10482 10483 10484 10484 10484 10484 10483 10483 10482 10482 10482 10482 10481 10481 10481 10481 10480 10479 10479 10479 10479 10479 10478 10477 10477 10477 10479 10480 10480 10479 10477 10476 10475 10475 10474 10474 10473 10472 10471 10471 10470 10469 10469 10468 10467 10465 10464 10464 10465 10464 10462 10461 10461 10460 10459 10458 10457 10456 10455 10454 10452 10451 10449 10448 10446 10444 10442 10441 10439 10437 10434 10432 10430 10427 10425 10423 10421 10419 10417
10472 10474 10474 10474 10475 10476 10476 10476 10476 10477 10477 10477 10477 10477 10477 10476 10476 10476 10475 10475 10475 10474 10474 10474 10474 10474 10474 10474 10473 10472 10472 10471 10472 10473 10474 10474 10473 10472 10471 10469 10469 10469 10469 10467 10466 10466 10466 10465 10464 10464 10463 10462 10461 10459 10458 10458 10458 10457 10456 10455 10454 10454 10453 10452 10452 10451 10449 10447 10446 10444 10442 10441 10439 10437 10435 10433 10431 10429 10427 10424 10422 10420 10417 10416 10414 10412
10466 10467 10467 10468 10468 10469 10469 10469 10470 10471 10471 10471 10470 10470 10470 10470 10469 10469 10469 10469 10468 10468 10468 10467 10467 10467 10468 10468 10468 10467 10467 10466 10467 10467 10467 10467 10467 10467 10466 10464 10463 10463 10464 10462 10461 10460 10460 10460 10459 10458 10457 10457 10456 10455 10453 10452 10452 10451 10450 10449 10449 10449 10447 10447 10446 10446 10444 10442 10440 10439 10437 10436 10434 10431 10429 10427 10426 10423 10421 10419 10417 10415 10413 10411 10409 10407
10459 10460 10461 10461 10461 10462 10462 10462 10463 10463 10463 10464 10464 10464 10464 10464 10463 10462 10462 10462 10462 10462 10462 10461 10461 10462 10462 10462 10462 10462 10462 10462 10461 10461 10461 10462 10462 10461 10461 10459 10458 10457 10457 10457 10456 10456 10455 10454 10454 10452 10452 10451 10451 10450 10449 10447 10447 10446 10444 10444 10444 10444 10442 10442 10441 10440 10439 10437 10435 10433 10431 10430 10428 10426 10424 10421 10419 10417 10416 10414 10412 10410 10408 10406 10403 10401
10452 10452 10453 10454 10454 10454 10455 10456 10456 10456 10456 10457 10457 10457 10457 10457 10457 10456 10456 10456 10456 10455 10455 10455 10456 10456 10456 10456 10456 10456 10456 10456 10456 10456 10456 10456 10456 10456 10455 10454 10452 10452 10451 10452 10451 10451 10449 10449 10448 10447 10447 10446 10444 10444 10443 10442 10442 10441 10439 10439 10437 10437 10437 10437 10436 10434 10433 10431 10429 10427 10426 10424 10422 10420 10418 10416 10414 10412 10410 10408 10406 10404 10403 10401 10399 10396
10445 10445 10446 10446 10446 10447 10448 10448 10449 10449 10449 10450 10451 10451 10451 10451 10450 10450 10449 10449 10449 10449 10449 10449 10449 10450 10451 10451 10451 10450 10450 10449 10449 10449 10449 10449 10449 10449 10449 10449 10447 10446 10446 10446 10446 10445 10444 10443 10442 10441 10441 10440 10439 10437 10437 10437 10436 10436 10435 10434 10432 10430 10431 10431 10431 10429 10427 10426 10424 10422 10419 10417 10416 10414 10412 10410 10408 10406 10405 10403 10401 10399 10398 10396 10394 10392
10437 10438 10438 10438 10439 10441 10441 10441 10441 10442 10442 10443 10443 10443 10443 10443 10443 10442 10442 10442 10442 10442 10442 10443 10444 10444 10444 10444 10444 10444 10444 10444 10443 10443 10443 10444 10444 10443 10443 10442 10442 10441 10441 10440 10439 10439 10438 10437 10436 10435 10434 10434 10434 10432 10431 10431 10431 10430 10429 10428 10426 10424 10424 10424 10424 10423 10421 10419 10417 10416 10414 10412 10409 10407 10406 10404 10402 10401 10399 10398 10396 10394 10392 10391 10389 10387
10431 10431 10431 10431 10432 10433 10434 10434 10434 10435 10435 10436 10436 10436 10435 10435 10436 10436 10436 10435 10435 10435 10436 10436 10437 10437 10437 10437 10437 10437 10437 10437 10437 10437 10437 10437 10437 10437 10437 10436 10436 10435 10434 10434 10432 10431 10431 10431 10431 10429 10428 10428 10428 10427 10426 10424 10424 10424 10424 10422 10421 10419 10417 10416 10417 10417 10416 10413 10411 10409 10407 10406 10403 10401 10399 10397 10396 10394 10393 10392 10391 10389 10387 10386 10383 10381
10424 10424 10424 10425 10426 10426 10426 10426 10427 10427 10427 10428 10428 10427 10427 10427 10428 10428 10428 10428 10428 10428 10429 10429 10430 10431 10431 10430 10430 10430 10431 10431 10431 10431 10431 10431 10431 10431 10430 10429 10429 10428 10428 10427 10426 10425 10424 10424 10424 10424 10422 10422 10422 10421 10419 10418 10417 10417 10416 10416 10415 10414 10411 10409 10409 10409 10409 10407 10405 10403 10401 10399 10397 10395 10393 10391 10390 10389 10387 10386 10384 10383 10382 10380 10378 10376
10417 10417 10418 10419 10419 10419 10419 10419 10419 10419 10419 10420 10420 10419 10419 10419 10420 10421 10421 10421 10421 10421 10422 10422 10423 10424 10424 10424 10423 10424 10424 10424 10425 10425 10425 10424 10424 10423 10423 10422 10421 10421 10421 10421 10420 10419 10418 10418 10417 10417 10417 10417 10416 10415 10413 10412 10411 10411 10409 10409 10408 10407 10406 10403 10402 10402 10401 10399 10397 10396 10395 10393 10391 10389 10387 10386 10384 10383 10382 10381 10379 10377 10375 10374 10372 10370
10411 10411 10411 10411 10412 10412 10412 10412 10411 10411 10412 10412 10412 10412 10411 10411 10412 10413 10414 10413 10414 10414 10414 10416 10416 10417 10417 10417 10417 10417 10418 10417 10417 10417 10417 10417 10416 10416 10416 10415 10414 10414 10414 10414 10414 10414 10413 10412 10411 10411 10411 10411 10410 10409 10407 10407 10406 10404 10402 10402 10401 10401 10399 10397 10396 10396 10394 10392 10390 10389 10388 10387 10386 10383 10381 10379 10377 10377 10376 10374 10372 10371 10369 10367 10365 10363
10403 10404 10404 10404 10404 10404 10404 10404 10404 10405 10405 10405 10404 10404 10404 10404 10405 10406 10406 10407 10407 10407 10407 10409 10410 10411 10411 10409 10410 10411 10411 10411 10409 10409 10409 10409 10409 10408 10408 10408 10408 10408 10407 10407 10407 10407 10407 10407 10406 10405 10404 10404 10402 10402 10401 10401 10400 10399 10396 10396 10395 10394 10392 10390 10389 10388 10387 10386 10384 10382 10381 10380 10379 10377 10375 10373 10372 10370 10369 10368 10367 10365 10363 10361 10359 10357
10396 10396 10396 10397 10397 10397 10397 10397 10398 10398 10398 10397 10397 10396 10397 10397 10398 10399 10399 10400 10401 10401 10401 10402 10402 10404 10403 10402 10403 10403 10404 10403 10402 10401 10401 10402 10401 10401 10401 10401 10401 10401 10401 10401 10401 10401 10401 10401 10400 10400 10399 10397 10396 10394 10394 10394 10394 10393 10391 10389 10388 10387 10385 10383 10382 10381 10381 10379 10377 10376 10375 10374 10372 10371 10369 10367 10365 10364 10362 10361 10360 10359 10357 10355 10353 10351
10387 10389 10389 10390 10391 10391 10391 10391 10391 10391 10391 10391 10390 10390 10391 10391 10392 10392 10393 10393 10394 10394 10395 10395 10396 10396 10396 10396 10396 10396 10396 10396 10395 10394 10394 10394 10394 10394 10394 10394 10394 10394 10394 10394 10394 10394 10394 10394 10394 10393 10393 10392 10390 10388 10386 10386 10386 10386 10384 10382 10381 10380 10378 10376 10375 10374 10374 10372 10371 10370 10369 10368 10366 10364 10362 10361 10358 10357 10356 10354 10353 10351 10350 10348 10346 10344
10380 10381 10382 10382 10383 10384 10384 10384 10384 10384 10384 10384 10384 10384 10384 10384 10385 10386 10386 10386 10387 10387 10388 10388 10388 10388 10388 10388 10388 10388 10389 10388 10387 10387 10387 10387 10387 10387 10387 10387 10387 10387 10387 10387 10387 10387 10387 10386 10386 10386 10386 10386 10385 10382 10379 10378 10378 10378 10377 10376 10374 10372 10371 10369 10368 10367 10367 10366 10365 10364 10363 10362 10361 10359 10357 10355 10352 10350 10348 10347 10346 10344 10342 10341 10339 10337
10372 10374 10374 10375 10376 10376 10376 10376 10376 10377 10377 10377 10377 10377 10377 10377 10378 10379 10379 10379 10380 10380 10381 10381 10381 10381 10381 10381 10381 10381 10381 10381 10380 10379 10379 10379 10379 10380 10380 10379 10379 10380 10380 10379 10379 10379 10379 10379 10377 10377 10377 10378 10379 10377 10374 10371 10370 10369 10369 10367 10367 10366 10365 10363 10361 10361 10361 10360 10358 10357 10356 10355 10354 10352 10351 10349 10346 10344 10341 10340 10338 10337 10336 10334 10332 10330
10366 10366 10367 10367 10368 10368 10368 10369 10369 10370 10370 10370 10370 10371 10371 10371 10371 10371 10372 10372 10372 10373 10373 10373 10374 10374 10374 10374 10373 10373 10374 10373 10373 10372 10372 10371 10372 10372 10372 10372 10372 10372 10372 10372 10371 10371 10371 10371 10370 10368 10367 10367 10369 10371 10369 10366 10363 10361 10361 10359 10358 10359 10358 10356 10355 10354 10354 10352 10352 10351 10349 10348 10347 10346 10344 10343 10341 10337 10335 10332 10331 10329 10327 10327 10325 10323